ROMMA est une association bénévole à but non lucratif. Votre soutien est indispensable : ADHERER à ROMMA ou FAIRE un DON

Taninges - (74, Haute-Savoie)

Vallée du Giffre (635 m)   Longitude: 06° 35' 38" E   Latitude: 46° 06' 21" N Station romma n°98
 

Détail journalier du     <<     >>

Température Precipitation Humidité Pression Vent Dir Rafale Dir. rafale Ensol.
Heure (°C) (mm) (%) (hPa) (km/h) (km/h) (min)
01:00 1.00.29210104O8OSO0
02:00 0.709010104OSO15O0
03:00 0.409110107ONO23NO0
04:00 0.409110114OSO11O0
05:00 0.609010111OSO5O0
06:00 0.309010111SO6NNO0
07:00 0.908810113NE11O0
08:00 1.208810124ONO15O0
09:00 1.309110125ONO16O0
10:00 2.108810139ONO24ONO0
11:00 2.7082101312ONO31NO0
12:00 3.6080101312ONO27NO0
13:00 4.7074101314ONO35O10
14:00 5.1077101414ONO35OSO30
15:00 5.1073101514ONO27O50
16:00 6.0072101512ONO27ONO15
17:00 5.6065101510ONO27ONO15
18:00 5.406110167ENE34ENE0
19:00 5.4056101612ENE44E5
20:00 5.3058101610ENE44ESE40
21:00 4.905310167NE29NO10
22:00 4.306010176NO21NO0
23:00 2.007210174SE24ONO0
minuit 0.908010171SO6OSO0

Graphique du 05-05-2019

 

Serveur OMMA